Weather History for Lakeville, MN

Change the Weather History Date:

Monday, February 11, 2013

  Actual Average Record
Temperature  
Mean Temperature 22 °F -  
Max Temperature 28 °F 24 °F 55 °F (1961)
Min Temperature 14 °F 6 °F -25 °F (1981)
Degree Days  
Heating Degree Days 44    
Moisture  
Dew Point 19 °F    
Average Humidity 84    
Maximum Humidity 100    
Minimum Humidity 74    
Precipitation  
Precipitation 0.00 in - - ()
Sea Level Pressure  
Sea Level Pressure 29.75 in    
Wind  
Wind Speed 19 mph (WNW)    
Max Wind Speed 26 mph    
Max Gust Speed 32 mph    
Visibility 8 miles    
Events Snow    
Averages and records for this station are not official NWS values.
T = Trace of Precipitation, MM = Missing Value Source: NWS Daily Summary

Daily Weather History Graph

Daily Weather History Graph

Search for Another Location

Airport:

Trip Planner

Search our weather history database for the weather conditions in past years. The results will help you decide how hot, cold, wet, or windy it might be!

Date:

Astronomy

Feb. 11, 2013 Rise Set
Actual Time 7:18 AM CST 5:36 PM CST
Civil Twilight 6:48 AM CST 6:06 PM CST
Nautical Twilight 6:14 AM CST 6:40 PM CST
Astronomical Twilight 5:40 AM CST 7:14 PM CST
Moon 7:37 AM CST (2/11) 7:41 PM CST (2/11)
Length of Visible Light 11h 18m
Length of Day
10h 17m
Waxing Crescent, 3% of the Moon is Illuminated
Feb 11
Waxing Crescent
Feb 17
First Quarter
Feb 25
Full
Mar 4
Last Quarter
Mar 11
New

Hourly Weather History & Observations

Time (CST) Temp. Windchill Dew Point Humidity Pressure Visibility Wind Dir Wind Speed Gust Speed Precip Events Conditions
12:07 AM 28.4 °F 16.6 °F 28.4 °F 100% 29.31 in 1.2 mi WNW 16.1 mph - N/A Snow Light Snow
12:27 AM 28.4 °F 16.2 °F 28.4 °F 100% 29.32 in 1.8 mi WNW 17.3 mph - N/A Snow Light Snow
12:47 AM 28.4 °F 16.2 °F 28.4 °F 100% 29.33 in 3.0 mi NW 17.3 mph - N/A   Overcast
1:07 AM 28.4 °F 15.8 °F 28.4 °F 100% 29.33 in 5.0 mi NW 18.4 mph - N/A   Overcast
1:28 AM 28.4 °F 15.4 °F 28.4 °F 100% 29.35 in 7.0 mi WNW 19.6 mph 23.0 mph N/A   Overcast
1:47 AM 28.4 °F 15.8 °F 26.6 °F 93% 29.36 in 4.0 mi WNW 18.4 mph 25.3 mph N/A   Overcast
2:07 AM 28.4 °F 15.4 °F 26.6 °F 93% 29.38 in 4.0 mi WNW 19.6 mph 26.5 mph N/A   Overcast
2:47 AM 28.4 °F 15.1 °F 26.6 °F 93% 29.40 in 5.0 mi WNW 20.7 mph 27.6 mph N/A   Overcast
3:07 AM 28.4 °F 15.1 °F 26.6 °F 93% 29.41 in 4.0 mi WNW 20.7 mph 28.8 mph N/A   Overcast
3:28 AM 28.4 °F 13.8 °F 26.6 °F 93% 29.42 in 5.0 mi WNW 25.3 mph 32.2 mph N/A   Overcast
3:47 AM 28.4 °F 14.4 °F 26.6 °F 93% 29.44 in 4.0 mi WNW 23.0 mph 28.8 mph N/A   Overcast
4:07 AM 26.6 °F 12.4 °F 24.8 °F 93% 29.46 in 3.0 mi WNW 21.9 mph 28.8 mph N/A Snow Light Snow
4:28 AM 26.6 °F 12.0 °F 24.8 °F 93% 29.48 in 4.0 mi WNW 23.0 mph 28.8 mph N/A   Overcast
4:47 AM 26.6 °F 13.1 °F 24.8 °F 93% 29.50 in 5.0 mi WNW 19.6 mph - N/A Snow Light Snow
5:07 AM 26.6 °F 13.4 °F 24.8 °F 93% 29.52 in 5.0 mi WNW 18.4 mph 28.8 mph N/A Snow Light Snow
5:28 AM 26.6 °F 12.4 °F 24.8 °F 93% 29.53 in 3.0 mi WNW 21.9 mph 28.8 mph N/A Snow Light Snow
5:47 AM 26.6 °F 12.0 °F 23.0 °F 86% 29.54 in 3.0 mi WNW 23.0 mph 32.2 mph N/A Snow Light Snow
6:07 AM 26.6 °F 11.7 °F 23.0 °F 86% 29.56 in 5.0 mi WNW 24.2 mph 31.1 mph N/A Snow Light Snow
6:27 AM 24.8 °F 9.3 °F 21.2 °F 86% 29.57 in 5.0 mi WNW 24.2 mph 29.9 mph N/A Snow Light Snow
6:47 AM 24.8 °F 10.7 °F 21.2 °F 86% 29.60 in 5.0 mi WNW 19.6 mph 26.5 mph N/A Snow Light Snow
7:07 AM 24.8 °F 10.0 °F 21.2 °F 86% 29.62 in 3.0 mi WNW 21.9 mph 29.9 mph N/A Snow Light Snow
7:27 AM 24.8 °F 10.0 °F 21.2 °F 86% 29.63 in 2.5 mi WNW 21.9 mph 26.5 mph N/A Snow Light Snow
7:47 AM 24.8 °F 10.7 °F 21.2 °F 86% 29.65 in 5.0 mi WNW 19.6 mph 24.2 mph N/A Snow Light Snow
8:07 AM 23.0 °F 8.7 °F 21.2 °F 93% 29.67 in 2.5 mi WNW 18.4 mph - N/A Snow Light Snow
8:27 AM 23.0 °F 8.3 °F 19.4 °F 86% 29.68 in 10.0 mi WNW 19.6 mph 26.5 mph N/A   Overcast
8:47 AM 23.0 °F 8.3 °F 19.4 °F 86% 29.70 in 10.0 mi WNW 19.6 mph 29.9 mph N/A   Overcast
9:07 AM 23.0 °F 7.6 °F 19.4 °F 86% 29.71 in 10.0 mi WNW 21.9 mph 29.9 mph N/A   Overcast
9:27 AM 23.0 °F 7.2 °F 19.4 °F 86% 29.72 in 10.0 mi WNW 23.0 mph 28.8 mph N/A   Overcast
9:47 AM 24.8 °F 10.0 °F 19.4 °F 80% 29.73 in 10.0 mi WNW 21.9 mph 29.9 mph N/A   Overcast
10:07 AM 24.8 °F 9.6 °F 19.4 °F 80% 29.74 in 10.0 mi WNW 23.0 mph 27.6 mph N/A   Overcast
10:27 AM 24.8 °F 10.3 °F 19.4 °F 80% 29.75 in 10.0 mi WNW 20.7 mph 27.6 mph N/A   Overcast
10:47 AM 24.8 °F 9.3 °F 19.4 °F 80% 29.77 in 10.0 mi West 24.2 mph 31.1 mph N/A   Overcast
11:07 AM 24.8 °F 10.0 °F 19.4 °F 80% 29.77 in 10.0 mi WNW 21.9 mph 26.5 mph N/A   Overcast
11:27 AM 24.8 °F 9.0 °F 19.4 °F 80% 29.78 in 10.0 mi WNW 25.3 mph 32.2 mph N/A   Overcast
11:47 AM 24.8 °F 8.7 °F 17.6 °F 74% 29.79 in 10.0 mi WNW 26.5 mph 31.1 mph N/A   Overcast
12:07 PM 24.8 °F 10.7 °F 17.6 °F 74% 29.81 in 10.0 mi West 19.6 mph 29.9 mph N/A   Overcast
12:27 PM 24.8 °F 9.6 °F 17.6 °F 74% 29.81 in 10.0 mi WNW 23.0 mph 31.1 mph N/A   Overcast
12:47 PM 24.8 °F 10.0 °F 17.6 °F 74% 29.82 in 10.0 mi WNW 21.9 mph 31.1 mph N/A   Overcast
1:07 PM 24.8 °F 9.3 °F 17.6 °F 74% 29.83 in 10.0 mi WNW 24.2 mph 29.9 mph N/A   Overcast
1:27 PM 24.8 °F 9.0 °F 17.6 °F 74% 29.83 in 10.0 mi West 25.3 mph 29.9 mph N/A   Overcast
1:47 PM 24.8 °F 10.7 °F 17.6 °F 74% 29.84 in 10.0 mi WNW 19.6 mph 32.2 mph N/A   Overcast
2:07 PM 24.8 °F 10.3 °F 17.6 °F 74% 29.85 in 10.0 mi WNW 20.7 mph 31.1 mph N/A   Overcast
2:27 PM 23.0 °F 6.6 °F 17.6 °F 80% 29.86 in 10.0 mi West 25.3 mph 32.2 mph N/A   Overcast
2:47 PM 23.0 °F 7.2 °F 17.6 °F 80% 29.87 in 10.0 mi West 23.0 mph 29.9 mph N/A   Overcast
3:07 PM 23.0 °F 6.9 °F 17.6 °F 80% 29.88 in 10.0 mi West 24.2 mph - N/A   Overcast
3:27 PM 23.0 °F 7.6 °F 17.6 °F 80% 29.89 in 10.0 mi West 21.9 mph 26.5 mph N/A   Overcast
3:47 PM 21.2 °F 4.2 °F 17.6 °F 86% 29.90 in 10.0 mi West 25.3 mph 28.8 mph N/A   Overcast
4:47 PM 21.2 °F 8.3 °F 15.8 °F 80% 29.94 in 10.0 mi West 13.8 mph 20.7 mph N/A   Overcast
5:08 PM 19.4 °F 3.6 °F 15.8 °F 86% 29.94 in 10.0 mi West 19.6 mph 24.2 mph N/A   Overcast
5:27 PM 19.4 °F 2.8 °F 14.0 °F 80% 29.94 in 10.0 mi WNW 21.9 mph - N/A   Overcast
5:47 PM 19.4 °F 2.8 °F 14.0 °F 80% 29.96 in 10.0 mi West 21.9 mph 28.8 mph N/A   Overcast
6:08 PM 19.4 °F 3.6 °F 14.0 °F 80% 29.96 in 10.0 mi West 19.6 mph - N/A   Overcast
6:27 PM 19.4 °F 6.0 °F 15.8 °F 86% 29.97 in 10.0 mi WNW 13.8 mph 21.9 mph N/A   Overcast
6:47 PM 19.4 °F 4.1 °F 12.2 °F 74% 29.97 in 10.0 mi WNW 18.4 mph 21.9 mph N/A   Overcast
7:08 PM 17.6 °F 3.2 °F 12.2 °F 79% 29.98 in 10.0 mi WNW 15.0 mph 24.2 mph N/A   Overcast
7:27 PM 17.6 °F 5.0 °F 12.2 °F 79% 29.98 in 10.0 mi West 11.5 mph 18.4 mph N/A Snow Light Snow
7:47 PM 17.6 °F 2.7 °F 12.2 °F 79% 29.98 in 10.0 mi West 16.1 mph - N/A Snow Light Snow
8:07 PM 17.6 °F 4.3 °F 12.2 °F 79% 29.99 in 10.0 mi WNW 12.7 mph - N/A   Overcast
8:27 PM 17.6 °F 5.0 °F 12.2 °F 79% 30.00 in 10.0 mi WNW 11.5 mph - N/A   Overcast
8:47 PM 17.6 °F 6.4 °F 12.2 °F 79% 30.00 in 10.0 mi West 9.2 mph - N/A   Overcast
9:07 PM 19.4 °F 7.9 °F 14.0 °F 80% 30.00 in 10.0 mi West 10.4 mph 17.3 mph N/A   Overcast
9:27 PM 19.4 °F 5.5 °F 14.0 °F 80% 30.01 in 10.0 mi West 15.0 mph 21.9 mph N/A   Overcast
9:47 PM 19.4 °F 4.5 °F 14.0 °F 80% 30.01 in 10.0 mi WNW 17.3 mph 20.7 mph N/A   Overcast
10:07 PM 19.4 °F 4.1 °F 14.0 °F 80% 30.01 in 10.0 mi WNW 18.4 mph 23.0 mph N/A   Overcast
10:27 PM 19.4 °F 5.5 °F 14.0 °F 80% 30.02 in 10.0 mi WNW 15.0 mph - N/A   Overcast
10:47 PM 17.6 °F 5.0 °F 14.0 °F 86% 30.02 in 10.0 mi WNW 11.5 mph - N/A   Overcast
11:07 PM 17.6 °F 6.4 °F 12.2 °F 79% 30.02 in 10.0 mi WNW 9.2 mph - N/A   Mostly Cloudy
11:27 PM 15.8 °F 5.1 °F 10.4 °F 79% 30.03 in 10.0 mi West 8.1 mph - N/A   Clear
11:47 PM 14.0 °F 3.9 °F 10.4 °F 86% 30.03 in 10.0 mi West 6.9 mph - N/A   Clear